Lid_Strength_Index
4 4 4 4 4 4 4 3 3 3 2 2 1 1 1 1 2 5 7 6 6 3 5 9 9 9 10 11 10 9 14 14 12 11 10 6 7 5 4 6 5 4 5 7 7
5 5 5 5 4 4 4 4 4 4 3 3 2 2 2 2 6 7 3 0 1 1 8 11 11 11 13 12 12 13 15 14 10 9 9 8 9 10 10 9 7 6 5 7 7
5 6 5 5 5 5 4 4 4 4 4 3 3 2 2 4 8 8 4 1 1 1 7 8 9 11 13 13 13 13 16 13 13 12 10 11 11 11 12 11 8 7 5 5 8
5 5 5 5 5 5 5 4 4 4 4 3 3 2 3 6 12 8 3 2 2 5 7 8 9 11 12 13 12 15 13 13 12 11 12 13 12 13 12 11 8 7 5 5 6
6 6 6 6 6 5 5 5 5 4 4 4 3 3 5 9 9 5 2 1 3 6 10 10 11 11 12 11 11 12 12 12 12 12 13 13 14 14 13 11 9 9 7 6 6
7 7 7 7 7 7 6 6 5 5 5 4 3 3 7 11 6 4 4 4 6 7 9 10 11 11 12 12 12 11 11 11 11 11 11 13 13 14 13 12 11 11 11 9 8
6 6 6 6 6 5 5 5 5 4 3 2 2 3 7 8 5 7 6 6 6 7 9 9 9 11 11 13 11 12 14 12 11 11 11 11 14 14 12 11 12 12 11 10 10
6 6 6 6 6 5 5 5 4 3 2 2 1 3 9 7 8 6 6 7 7 7 8 8 9 11 12 11 13 15 14 16 12 11 10 11 16 12 11 11 12 12 12 11 11
6 6 6 6 6 6 5 4 3 3 2 2 3 5 9 5 8 8 7 8 8 8 7 8 9 11 12 15 17 16 19 18 15 11 12 12 15 11 10 11 12 11 11 11 11
6 6 6 6 6 5 4 3 2 3 3 2 5 8 7 9 7 8 7 7 9 9 9 10 11 13 15 16 20 17 17 16 17 14 13 13 14 11 10 10 11 11 11 11 11
6 5 6 6 5 5 7 6 10 8 10 12 12 10 8 9 5 6 7 9 9 10 14 12 14 17 16 14 13 13 14 15 14 13 14 14 13 12 11 11 11 11 10 10 10
6 6 6 6 6 5 8 11 11 12 15 10 9 9 9 9 11 9 7 10 11 14 12 13 16 14 11 11 12 13 15 16 15 13 13 14 15 14 12 12 11 11 11 11 10
6 5 5 5 5 8 10 10 7 8 14 11 10 12 12 11 12 12 9 11 12 12 12 14 12 10 12 11 12 12 14 16 15 12 12 14 16 16 14 12 11 11 10 10 10
5 6 6 6 8 9 11 8 7 7 15 16 14 12 13 12 12 10 10 11 13 15 13 12 10 11 11 11 11 14 10 11 12 13 17 13 19 16 14 13 12 11 11 11 11
6 6 6 6 9 12 10 8 7 9 21 16 15 10 12 14 14 14 10 12 14 14 12 14 12 12 13 12 11 12 10 11 12 14 15 15 17 18 15 15 14 13 12 11 11
6 6 6 8 9 9 7 7 7 15 25 20 16 17 16 15 15 13 13 9 10 13 11 11 9 10 11 10 12 12 12 13 15 16 19 16 17 18 16 14 13 11 12 12 11
6 6 8 8 11 7 7 8 16 24 18 22 20 17 17 18 17 16 16 15 16 19 18 15 12 10 9 12 11 12 14 17 20 21 21 16 17 15 14 12 12 13 13 13 12
6 7 7 8 7 7 8 14 25 22 22 17 18 18 19 18 17 17 16 15 12 14 17 20 20 13 14 15 15 14 14 18 23 21 18 15 18 15 11 10 9 12 12 13 13
6 8 9 8 7 7 12 23 24 20 18 19 18 20 21 18 17 17 16 13 11 12 18 19 19 14 13 13 12 15 16 12 15 15 18 17 15 12 11 11 13 13 14 14 14
9 9 11 8 7 10 16 21 20 16 16 17 21 19 23 21 19 18 16 12 12 11 11 15 21 14 14 12 11 14 12 16 16 22 23 18 17 16 13 14 14 14 15 14 14
9 12 10 8 7 13 21 21 18 15 15 18 19 20 19 20 18 19 17 13 10 12 10 13 15 17 15 16 18 16 16 15 14 15 19 20 18 14 15 14 15 15 15 15 15
10 16 9 8 16 15 20 18 15 16 14 16 16 17 18 17 19 18 17 13 10 10 14 11 15 20 19 15 14 17 18 18 19 20 17 16 17 12 13 13 14 15 15 15 15
13 13 9 10 20 19 18 17 16 17 16 16 17 16 15 17 20 16 15 11 9 11 13 11 14 22 21 16 15 19 17 17 17 16 19 19 17 12 12 14 14 15 15 15 15
12 17 13 12 14 17 20 19 19 15 16 15 16 15 17 17 15 18 16 12 9 10 6 8 17 19 24 21 18 21 19 17 18 20 18 18 17 14 13 14 14 15 15 16 17
13 17 17 19 18 18 18 18 19 19 16 16 17 17 18 21 18 18 15 14 11 9 10 11 20 18 16 17 17 18 19 18 18 17 19 18 17 14 14 15 15 15 16 17 18
14 16 15 17 17 18 18 19 19 18 18 19 20 16 16 19 17 19 17 15 15 13 13 12 17 15 18 15 16 18 17 16 16 15 15 14 16 15 13 15 16 17 18 18 19
10 10 14 16 17 19 18 18 18 17 16 16 16 17 17 15 14 13 13 12 12 14 14 15 18 19 22 14 15 23 17 15 15 16 16 18 17 14 16 17 18 18 18 19 19